GEFSMA_500_meanwind_006.txt.gz
Wind_Speed
10 10 9 10 9 8 6 6 7 6 9 11 12 13 14 15 15 16 15 15 14 14 15 16 17 17 16 16 15 14 14 14 12 10 9 8 7 7 8 9 9 8 7
11 11 10 11 11 9 7 7 8 6 7 8 9 11 11 11 13 14 15 16 16 14 13 13 14 15 15 15 14 13 11 10 10 9 9 8 7 7 8 9 10 10 9
12 12 11 13 13 12 9 10 10 7 8 8 9 10 10 9 10 12 14 16 16 15 13 13 13 13 12 11 10 8 7 6 7 7 7 6 5 6 6 6 8 10 11
13 13 13 15 14 12 10 11 11 9 9 7 7 8 9 9 10 11 13 14 16 16 15 15 14 12 11 10 9 8 7 7 6 6 5 3 3 5 6 6 7 8 10
14 15 16 16 14 13 12 13 12 9 10 8 5 5 6 7 10 11 11 12 14 16 17 16 16 14 13 11 10 10 10 10 9 7 5 4 5 6 7 8 8 9 10
18 19 18 17 16 15 14 13 13 13 13 10 7 5 5 5 7 9 11 12 13 14 15 16 17 17 16 15 13 13 13 11 9 7 6 6 6 7 7 8 9 10 10
22 23 22 19 17 15 14 14 14 16 13 11 10 10 7 6 6 6 7 10 13 14 15 15 16 17 17 16 17 16 14 12 11 10 9 7 7 8 8 8 9 10 11
23 25 23 21 20 19 16 16 18 17 14 12 11 12 10 8 8 8 7 9 11 13 14 14 15 16 18 17 17 18 15 13 13 12 11 10 9 10 11 11 12 12 12
24 25 25 24 22 23 21 20 20 19 18 14 11 13 14 12 12 11 11 11 12 13 12 13 15 16 17 18 19 20 18 15 14 13 12 12 11 12 14 15 15 14 14
26 27 26 23 23 24 22 22 23 22 19 17 16 15 15 14 14 14 14 13 12 14 13 14 15 15 17 18 19 20 19 17 16 15 14 13 14 15 17 18 18 18 17
25 27 26 24 24 25 24 22 23 22 20 19 18 16 15 16 15 15 15 14 14 14 15 14 14 14 14 16 17 19 19 18 18 17 16 15 17 19 20 20 20 21 21
25 27 26 27 27 27 26 23 23 22 19 19 19 17 16 17 16 16 17 17 16 16 16 15 15 15 15 16 17 18 19 19 19 18 18 18 19 20 22 22 22 23 23
26 28 27 29 27 26 27 26 27 27 24 22 22 20 20 19 18 18 18 18 16 16 16 17 18 18 17 16 16 17 18 18 19 18 18 19 21 22 24 24 22 22 23
26 27 26 28 28 27 27 27 27 27 26 25 25 24 24 24 22 20 19 18 16 16 18 19 20 19 19 18 18 18 18 18 18 17 19 21 22 24 24 23 22 22 23
22 25 25 26 27 30 31 31 30 29 28 27 27 26 25 25 23 22 22 21 19 18 19 20 21 21 20 19 20 20 19 18 18 18 20 22 23 23 22 21 21 23 25
22 25 26 26 27 29 30 30 31 31 32 31 30 30 29 26 23 22 23 23 23 22 22 22 22 22 21 20 19 19 18 18 18 19 21 23 23 21 20 20 20 23 24
23 25 27 29 29 29 29 28 28 27 27 27 27 30 32 30 25 23 23 23 24 25 25 24 23 22 22 20 18 17 17 17 18 20 21 21 18 17 18 19 20 21 21
23 24 25 26 27 27 26 25 24 21 22 23 25 28 31 29 24 21 20 22 23 23 25 25 23 21 20 20 18 17 17 16 16 17 17 16 15 16 17 18 18 18 19
22 22 22 21 22 23 23 23 22 21 20 20 21 23 24 23 22 20 19 20 21 23 25 23 21 19 18 19 18 16 16 13 13 13 14 15 15 16 16 16 16 17 17
21 20 20 21 22 21 21 21 22 23 22 20 19 19 21 23 23 21 20 20 21 22 21 20 20 19 20 20 18 16 14 11 11 12 13 14 15 16 15 14 14 13 14
19 21 20 22 24 24 21 21 22 23 23 23 23 22 24 25 25 24 21 20 20 22 21 21 21 21 23 22 19 17 14 12 11 10 11 13 15 15 14 13 11 10 9
19 19 19 19 22 23 23 22 21 22 24 26 26 26 27 27 26 24 21 19 20 22 22 21 22 23 25 24 20 18 15 13 11 10 11 13 15 15 14 12 10 9 7
21 19 18 19 20 22 23 23 22 22 23 25 28 30 30 28 27 26 23 21 21 22 22 22 22 22 23 23 21 19 17 15 13 11 12 14 16 15 13 12 11 9 7
22 20 20 19 20 22 23 24 24 24 24 25 26 28 31 31 29 26 24 23 23 23 24 24 24 23 22 21 20 19 18 16 14 12 12 14 16 15 13 12 12 12 11
25 23 22 22 21 21 23 24 24 23 24 24 25 25 28 29 28 27 26 25 25 25 25 25 25 26 25 23 21 20 19 18 15 13 13 15 16 15 14 14 14 14 14
27 26 24 24 24 22 21 24 25 24 24 24 24 24 24 25 27 28 28 27 26 26 28 28 27 29 29 27 25 23 21 19 16 15 15 16 17 16 16 17 17 16 16

GEFSMA_500_meanwind_012.txt.gz
Wind_Speed
12 11 10 9 10 11 12 12 10 9 8 9 11 14 14 13 13 12 12 13 13 14 14 15 16 16 17 17 17 16 15 14 13 13 12 10 8 7 7 7 6 4 2
12 12 11 10 11 12 13 12 10 8 6 6 8 11 13 12 12 12 13 13 12 12 13 14 16 17 18 18 18 17 16 15 14 13 11 10 8 7 7 6 6 5 4
13 13 13 12 12 12 13 12 10 9 6 5 5 7 9 9 10 11 13 13 13 13 12 14 16 18 19 19 18 17 16 15 13 12 10 9 8 7 6 5 5 4 4
13 14 14 13 13 13 13 13 12 11 8 6 5 5 6 7 8 10 12 13 14 14 14 14 14 15 15 15 15 14 14 13 12 11 10 9 8 7 6 6 5 4 4
13 14 15 14 14 14 15 14 13 12 9 7 5 3 4 6 8 9 11 13 14 15 14 14 13 13 12 12 11 12 12 12 12 11 10 9 8 7 7 6 6 6 5
13 15 16 16 15 15 16 16 14 13 11 8 5 2 2 4 6 7 9 11 13 15 15 15 15 14 13 13 12 12 11 11 12 11 11 9 8 8 7 7 7 7 7
16 17 18 18 18 18 17 17 15 15 13 10 7 5 4 4 5 5 7 9 12 13 15 16 18 18 17 16 16 14 13 13 14 13 12 10 9 9 8 8 8 7 8
20 21 23 23 22 21 20 19 18 17 16 13 10 8 7 7 7 6 6 7 10 12 14 15 16 17 19 19 19 19 18 17 17 16 14 12 11 10 10 10 10 9 9
23 24 25 27 26 25 23 22 20 19 18 16 13 11 11 11 11 10 9 8 8 10 12 13 15 16 17 19 19 20 20 20 20 18 16 15 13 11 11 12 12 11 11
24 25 27 28 29 29 27 25 22 21 21 19 16 14 13 13 13 14 13 12 10 10 11 12 13 15 16 17 18 19 19 19 20 20 18 16 15 13 13 13 14 14 14
23 24 26 29 30 31 30 28 26 25 24 22 20 18 17 16 15 15 15 15 15 15 13 13 13 14 15 16 16 17 18 19 20 20 19 18 17 17 16 16 16 16 16
22 22 24 27 30 32 32 31 29 28 27 26 24 22 21 19 18 16 16 16 17 17 16 15 14 15 15 16 16 16 17 18 19 20 20 20 20 20 20 19 18 18 18
20 21 24 27 30 32 33 32 31 31 30 28 28 26 24 22 20 17 16 15 16 16 16 16 16 17 17 17 16 16 16 17 18 19 21 21 21 22 22 21 19 19 20
17 19 23 26 29 32 32 32 31 32 30 30 29 28 26 25 23 20 18 16 16 16 16 16 16 17 18 18 17 16 16 16 18 19 20 21 22 22 22 21 20 21 22
16 17 19 23 26 28 31 32 32 32 31 31 31 30 29 27 26 25 23 21 20 18 17 16 16 16 16 17 17 17 17 17 18 19 20 21 22 23 22 21 22 23 24
17 19 20 19 22 24 27 29 32 32 32 32 33 32 32 31 30 28 27 25 24 22 20 19 18 17 17 16 17 18 18 18 19 20 21 22 22 23 22 23 23 24 24
19 20 20 21 23 25 27 30 32 33 32 32 33 33 33 33 32 31 29 27 25 24 23 23 22 21 20 19 19 19 19 19 19 20 21 22 22 22 23 23 23 23 23
20 20 21 22 23 24 26 28 30 32 32 33 34 35 35 36 35 34 32 30 28 27 25 25 25 24 22 21 20 20 20 20 19 20 21 22 22 22 23 23 21 21 21
20 20 21 22 23 24 24 26 28 30 32 34 35 35 36 36 35 35 34 34 32 30 28 27 26 24 22 20 20 21 21 20 19 20 21 23 23 22 22 22 20 20 19
19 19 20 21 22 22 23 24 25 28 30 32 33 33 34 34 33 33 33 34 34 32 30 28 26 24 22 21 21 21 20 20 19 20 21 23 23 22 21 20 19 18 18
20 20 20 21 22 22 22 24 24 26 28 28 29 29 30 31 31 31 32 33 33 32 30 28 25 24 23 21 20 21 21 20 21 21 22 23 22 21 20 19 17 16 17
22 21 21 21 21 21 22 23 24 25 26 27 28 29 29 29 29 29 31 32 32 31 29 26 25 24 23 21 21 22 22 22 23 24 24 23 22 21 20 18 17 16 16
24 24 23 22 22 22 22 22 23 24 25 28 29 29 29 28 28 28 30 30 30 29 28 26 25 25 25 23 22 21 21 23 25 25 25 24 22 21 20 20 19 18 17
25 25 25 23 23 23 23 23 23 24 25 26 28 29 29 29 28 28 29 29 29 29 28 27 27 27 27 25 24 22 21 23 25 25 25 24 23 22 22 21 20 19 18
24 25 25 24 23 24 24 25 26 25 25 26 27 28 28 30 30 30 30 30 30 30 29 28 28 28 28 27 26 25 24 23 24 24 25 24 23 22 22 22 21 20 19
27 25 25 24 25 25 25 26 27 27 26 25 26 28 28 30 32 32 32 32 32 32 31 31 31 31 30 29 28 27 26 25 25 25 25 24 24 23 23 22 22 21 20

GEFSMA_500_meanwind_018.txt.gz
Wind_Speed
12 12 13 14 13 11 11 11 11 10 10 11 12 14 17 19 20 20 19 18 18 17 17 18 19 19 18 17 17 16 15 15 14 12 11 11 11 11 10 9 8 8 7
12 12 13 14 14 13 12 12 11 10 10 10 11 12 15 17 19 18 17 16 16 16 16 17 18 20 20 19 19 18 17 16 15 14 13 13 12 11 10 9 9 9 8
12 13 13 14 14 14 13 13 12 11 10 10 10 11 13 16 18 18 18 16 15 15 15 16 17 19 20 20 20 19 18 17 16 15 14 13 12 11 10 9 9 9 9
13 13 14 15 15 15 14 14 13 12 11 10 10 10 12 14 16 17 17 18 17 17 16 16 17 18 19 19 19 19 18 17 17 16 14 13 11 10 10 10 9 9 8
13 14 15 15 16 15 15 14 14 13 12 11 11 10 11 13 14 15 16 17 19 19 18 17 16 17 17 17 17 17 17 17 16 15 13 11 10 10 9 10 9 9 8
14 14 14 16 16 16 16 16 16 15 14 12 11 10 10 10 12 13 14 16 18 19 20 19 17 16 16 15 15 14 14 14 13 12 11 11 9 8 8 8 9 9 8
16 15 14 15 16 17 17 17 18 17 16 14 12 11 9 8 9 10 12 15 17 19 20 20 19 17 16 15 14 13 13 12 11 10 10 10 10 8 8 7 7 8 8
19 18 16 16 16 18 19 20 20 19 18 17 15 13 11 9 8 8 10 13 15 17 19 20 20 19 18 17 16 15 14 13 12 11 12 12 11 10 9 8 8 8 7
22 21 19 19 19 20 21 23 22 22 21 20 18 16 13 12 11 10 9 10 12 15 17 19 20 20 20 19 18 18 17 16 15 15 15 15 15 14 12 11 10 10 10
25 24 23 22 23 23 24 26 26 26 24 23 21 19 17 15 13 12 11 10 10 12 14 16 17 18 19 19 19 19 19 20 19 19 19 19 19 18 16 14 13 12 12
28 26 25 25 26 28 28 28 29 29 28 26 24 22 20 19 17 14 13 13 13 13 13 13 15 16 17 17 17 18 18 19 20 20 20 21 22 21 19 17 16 15 14
28 27 27 27 27 28 30 31 30 30 31 29 27 25 23 22 19 17 16 15 15 15 15 15 14 15 15 15 16 16 17 17 18 19 19 20 22 22 21 20 19 18 17
26 26 26 27 27 28 30 30 31 32 33 33 30 28 26 25 23 20 19 17 17 17 17 18 17 17 16 16 16 16 17 17 17 18 19 20 21 22 23 22 21 20 19
22 22 23 24 24 24 26 28 31 34 34 35 34 32 30 29 27 24 22 20 18 18 18 19 20 20 19 19 18 18 18 18 18 18 18 19 20 21 22 22 22 22 21
18 18 19 20 21 22 22 24 29 32 35 35 35 35 33 32 31 28 26 23 21 19 19 19 20 21 21 21 20 20 20 20 19 19 19 19 19 20 21 21 22 22 22
17 17 17 18 19 21 22 23 27 31 34 36 36 36 35 34 32 31 29 27 25 24 22 21 20 21 21 21 21 20 21 21 21 20 20 20 21 21 21 21 22 22 22
16 17 17 17 18 19 20 21 23 28 32 34 35 36 36 35 33 33 31 30 29 28 26 25 24 23 23 22 22 21 20 21 21 21 21 21 21 21 22 21 21 21 22
17 18 18 18 18 19 20 20 21 23 28 32 33 33 34 34 32 33 33 32 32 31 30 28 27 26 25 25 25 24 23 23 23 23 23 22 22 22 21 21 20 21 22
19 19 19 19 19 20 21 21 21 22 25 29 32 32 32 33 33 34 35 34 34 34 33 33 31 29 28 27 27 27 26 25 25 25 24 23 22 22 21 20 20 21 22
22 21 21 20 20 21 23 23 24 24 25 27 30 32 33 34 35 35 35 35 35 35 34 34 34 33 31 29 28 28 27 26 26 26 25 24 23 22 21 20 21 21 21
24 23 23 22 22 23 23 24 25 25 26 28 30 31 32 33 35 35 35 36 36 36 36 36 36 36 35 33 32 30 28 27 27 26 26 25 24 23 22 21 21 21 21
25 25 25 24 24 24 24 24 24 25 26 27 28 30 31 32 33 34 35 36 36 36 36 36 36 37 36 36 35 32 30 28 28 27 27 25 25 24 23 23 22 22 21
25 25 26 26 25 25 24 25 24 25 26 26 27 27 28 29 31 32 34 35 35 35 35 35 34 35 36 36 35 32 30 28 27 27 27 25 25 24 24 24 23 22 22
24 25 26 26 26 26 25 25 25 25 26 26 26 26 26 26 26 29 31 32 32 32 33 34 34 35 35 35 33 30 29 29 29 28 27 25 25 25 25 24 24 23 22
23 24 25 26 26 26 26 26 26 26 26 25 25 25 25 25 25 25 27 29 31 31 32 33 35 35 35 35 33 31 31 31 31 29 27 26 25 24 24 24 24 23 23
24 25 25 25 26 26 25 25 26 27 26 25 25 25 24 24 24 25 26 28 30 31 31 32 34 35 34 33 33 32 32 33 33 31 28 27 26 25 24 24 23 23 22

GEFSMA_500_meanwind_024.txt.gz
Wind_Speed
15 15 15 13 13 13 12 11 11 11 12 14 14 15 16 18 19 20 20 21 20 19 17 16 15 14 15 15 14 13 13 13 15 16 14 11 9 8 8 8 8 8 8
16 16 16 15 13 13 13 12 11 12 12 14 14 14 15 16 17 18 19 20 20 19 18 17 16 16 17 17 16 16 15 15 15 14 13 11 10 9 9 9 9 8 8
17 17 17 16 14 13 13 13 13 13 13 13 13 14 14 15 16 17 18 18 18 18 17 16 16 16 17 19 19 18 17 16 15 14 13 12 11 11 10 9 9 9 8
17 18 18 17 15 14 14 14 14 14 14 14 14 14 14 14 14 14 16 17 17 17 16 15 15 15 16 18 20 20 19 17 16 15 14 13 12 12 11 10 10 9 8
18 18 19 18 17 15 15 15 15 15 15 15 15 14 14 13 13 13 14 16 17 17 16 15 14 13 14 16 18 20 20 19 18 17 15 14 13 12 11 10 10 9 8
19 19 20 20 19 17 16 15 16 16 16 16 16 15 14 13 13 12 13 15 16 17 16 15 15 14 14 15 16 17 18 19 18 17 16 15 13 12 11 10 9 9 8
22 22 22 22 20 19 18 16 17 18 18 18 17 16 15 13 12 11 11 13 14 14 15 15 15 14 14 14 15 16 16 17 17 16 15 14 13 11 10 9 9 8 8
24 24 24 24 23 22 20 19 18 19 20 20 20 18 16 14 12 10 10 11 12 12 13 14 14 14 14 14 14 14 14 14 14 14 13 13 12 11 10 9 8 8 8
26 26 25 25 25 23 21 21 21 21 21 21 21 20 18 15 12 11 9 9 10 11 12 13 14 15 15 15 15 15 14 13 12 12 12 11 11 11 11 9 8 8 8
27 27 26 27 26 26 24 24 24 23 22 21 22 22 20 18 15 12 11 9 8 9 10 11 13 15 16 17 17 16 16 14 14 13 12 12 12 12 12 11 10 9 10
27 27 27 27 27 27 27 27 25 25 23 22 22 22 22 21 19 16 14 12 10 9 9 9 11 13 15 17 17 17 17 17 16 16 15 15 14 14 15 14 14 13 12
26 26 26 26 27 28 28 27 25 25 23 23 23 23 23 23 23 20 17 15 13 11 11 10 10 11 13 15 16 17 17 17 17 17 17 17 17 17 17 18 17 17 16
24 24 24 25 26 27 27 27 26 25 24 24 24 25 25 25 25 23 21 18 16 14 13 13 12 12 12 13 14 15 16 16 17 17 17 17 18 18 19 19 19 19 19
21 21 22 23 23 23 24 24 25 24 25 24 25 26 26 28 28 27 25 22 20 17 16 15 15 15 14 14 14 14 15 16 16 16 17 17 17 18 19 19 20 20 21
19 19 19 20 20 20 21 21 21 23 24 25 24 25 26 29 30 29 28 26 23 21 18 17 17 16 16 16 16 16 16 16 17 17 17 17 17 18 18 18 19 19 20
18 18 17 17 18 18 19 20 20 21 21 22 23 24 27 29 31 32 31 30 28 25 22 20 19 18 17 17 17 18 18 18 18 18 19 19 19 18 18 18 19 19 20
18 18 17 17 17 17 18 18 19 19 20 20 22 24 26 29 30 32 32 32 31 29 26 24 22 21 19 18 18 17 18 18 19 19 19 20 19 19 19 19 20 20 21
19 19 19 19 18 18 19 19 20 20 20 19 20 21 22 26 29 31 32 32 32 31 29 27 25 24 23 22 21 20 19 19 19 19 19 20 20 20 20 20 21 21 22
20 21 21 20 20 20 20 20 21 21 21 20 20 19 20 23 26 30 31 32 33 33 31 29 28 27 25 25 24 23 22 21 20 20 21 21 21 22 22 22 22 22 23
22 22 22 22 22 22 22 22 22 22 22 21 21 21 21 22 24 26 28 30 32 33 32 31 29 28 28 27 27 28 26 24 23 23 23 24 24 24 24 24 24 24 24
23 23 23 22 23 23 23 23 23 23 23 23 23 23 22 21 23 24 26 28 30 31 31 31 30 30 30 30 29 30 29 28 26 26 26 25 25 26 26 25 25 25 24
24 24 24 23 23 23 24 24 23 23 23 23 23 23 23 22 23 24 25 26 28 30 31 31 31 31 30 31 30 29 29 29 29 29 29 28 27 27 27 27 26 25 25
24 24 24 24 23 23 24 24 24 24 24 24 23 23 23 23 22 23 24 25 26 28 30 31 31 31 31 30 31 30 30 30 31 31 31 31 30 29 29 28 27 27 26
24 24 24 24 24 23 24 24 25 25 25 25 24 24 24 23 23 22 23 25 25 26 27 28 30 31 31 31 31 31 31 31 30 31 33 33 32 30 30 29 28 27 27
24 24 24 25 24 24 25 25 25 26 26 25 25 24 24 24 24 24 23 24 24 25 26 27 28 30 32 32 32 32 32 32 30 31 34 33 32 31 30 30 29 28 28
23 24 24 25 25 24 25 26 26 26 26 27 26 26 25 25 24 24 24 23 24 25 25 25 26 28 30 31 32 32 32 33 32 32 33 33 32 32 30 31 31 29 28

GEFSMA_500_meanwind_030.txt.gz
Wind_Speed
9 10 10 11 10 9 8 9 10 11 12 13 13 14 14 15 17 18 19 20 20 20 19 18 16 15 14 13 13 12 11 12 13 15 16 16 14 12 10 9 9 8 8
9 9 10 11 11 10 9 10 10 11 12 13 14 14 14 14 16 17 19 20 21 21 21 20 19 18 16 16 15 14 13 13 13 16 16 16 14 12 11 10 9 9 8
9 10 11 11 12 11 11 11 11 12 12 13 15 15 14 14 14 16 17 18 20 21 21 21 20 19 18 18 17 17 15 15 14 15 16 16 15 13 12 11 10 9 8
10 11 12 12 12 12 12 12 13 13 13 14 15 15 15 14 14 15 16 17 18 20 20 20 20 19 18 18 18 18 18 17 16 16 16 16 15 13 12 12 11 10 8
12 12 13 13 13 13 13 13 13 14 15 15 16 16 15 15 15 15 15 16 17 18 19 19 18 18 17 18 19 20 20 19 18 17 17 16 16 14 14 13 12 10 9
15 15 15 15 15 15 15 15 15 15 15 16 16 16 16 16 16 16 15 16 16 17 18 18 18 17 17 17 18 19 21 21 20 19 18 18 17 16 15 14 13 11 10
17 17 17 17 17 18 18 17 17 16 16 16 17 17 17 16 16 16 15 15 16 17 18 18 19 18 18 17 18 18 20 22 22 21 20 19 18 17 16 15 13 13 11
18 18 19 20 20 21 20 20 20 18 17 17 18 18 18 18 17 16 15 15 15 16 18 19 20 20 20 19 18 18 19 20 21 21 20 20 19 17 16 15 14 13 12
19 20 22 23 23 23 23 22 22 20 19 19 19 18 19 20 19 18 16 15 14 14 16 19 20 21 21 20 19 19 18 19 20 20 19 19 19 18 16 16 15 14 13
21 22 23 24 25 25 25 25 25 23 22 21 21 20 20 20 21 20 18 16 14 14 15 17 18 20 21 21 19 19 18 18 18 18 18 18 18 18 17 17 16 14 13
23 24 25 25 25 26 26 27 26 25 24 23 21 21 20 20 21 21 20 18 16 14 14 15 16 18 20 20 19 18 18 18 18 18 17 17 17 18 18 18 17 16 14
24 25 25 25 25 25 25 27 28 28 26 24 23 21 21 20 20 22 22 20 18 16 14 15 15 16 18 19 19 19 19 19 18 18 18 18 18 18 18 18 18 17 16
25 25 24 24 23 23 24 25 27 28 27 26 24 22 21 21 21 23 23 22 21 19 16 15 15 15 15 17 18 18 19 19 19 19 20 20 20 19 19 19 19 19 19
23 23 23 22 22 22 22 23 24 25 26 26 24 23 22 20 21 23 24 25 24 22 20 18 17 16 15 15 16 17 18 18 19 19 19 19 19 20 20 19 19 20 20
21 21 21 21 20 20 20 20 21 22 22 23 22 23 23 21 21 23 25 26 25 24 23 21 20 18 17 16 16 16 17 17 18 18 18 18 18 18 18 18 19 19 20
19 19 19 19 19 19 19 18 18 18 18 18 19 19 20 21 22 23 24 26 27 27 26 25 23 22 20 19 18 18 18 18 18 18 18 18 18 18 18 18 18 19 19
19 19 18 18 18 18 17 17 17 17 17 17 18 18 18 19 21 22 25 27 28 29 29 28 27 25 23 22 21 20 20 20 20 19 19 19 19 20 20 20 19 20 20
20 20 19 18 18 18 17 17 17 17 16 17 17 16 17 18 20 21 23 27 29 30 30 30 30 29 27 25 23 22 22 21 21 21 21 21 21 21 21 21 21 21 21
21 20 19 18 18 18 18 18 18 18 18 18 17 17 17 17 18 19 21 24 27 29 31 32 33 32 31 29 27 25 24 24 23 22 22 22 22 22 22 22 22 21 21
20 19 19 19 19 19 19 19 19 19 19 19 18 18 18 18 19 19 19 21 25 28 30 32 34 34 34 33 31 29 28 27 26 24 24 24 24 24 24 23 23 23 23
19 19 18 18 18 19 19 19 19 19 20 20 20 19 19 18 19 20 20 21 23 26 28 31 33 34 34 34 34 34 32 30 28 28 28 28 26 26 26 26 25 25 25
19 19 19 19 19 19 20 20 20 21 21 21 21 20 20 20 20 20 21 21 22 24 25 28 31 33 34 34 35 36 35 32 31 32 31 30 30 30 29 29 28 28 28
20 19 19 19 19 19 19 20 20 21 21 21 22 22 22 21 20 20 21 21 21 22 24 25 27 30 32 34 35 35 35 34 34 35 34 33 33 33 33 32 31 31 31
20 20 19 19 19 19 19 19 20 21 21 21 21 21 22 22 21 21 21 21 21 22 24 26 27 27 29 32 34 35 36 35 35 34 34 35 35 34 34 33 33 33 33
20 20 19 19 19 19 19 20 20 20 21 21 21 21 22 22 22 22 22 22 22 22 22 23 25 27 27 29 31 33 34 34 34 35 35 35 36 36 35 35 35 34 35
20 20 20 20 20 20 20 20 21 21 22 22 22 22 23 23 23 23 23 22 22 22 22 22 24 25 26 27 29 30 32 33 34 35 36 35 36 37 36 36 37 36 36